Location: G�migny
(47.9646°N, 1.6950°E)
Time: 08:58:37
(UTC+00:00)

Cosmos 2369 Rocket - Pass Details

Date: 23 October 2019
Orbit: 830 x 851 km, 71.0° (Epoch: 17 November)

Event Time Altitude Azimuth Distance (km) Brightness Sun altitude
Rises 19:01:06 0° 178° (S) 3,387 5.2 -22.5°
Reaches altitude 10° 19:03:43 10° 170° (S) 2,453 4.4 -22.9°
Enters shadow 19:03:54 11° 169° (S) 2,390 4.4 -22.9°
